HK6RM-16 Weather Reports


time (UTC)temp
F
wind
direction
speed
knots
gust
knots
rain 1hr
in
rain 24hr
in
rain mn
in
humidity
%
barometer
mb
20260507181012 66 290 4.3 0.0 0.00 0.00 0.00 72 1013.0
20260507175409 66 290 4.3 0.0 0.00 0.00 0.00 72 1013.0
20260507173809 67 290 5.2 0.0 0.00 0.00 0.00 72 1013.0
20260507172208 65 300 4.3 0.0 0.00 0.00 0.00 75 1014.0
20260507170608 66 300 4.3 0.0 0.00 0.00 0.00 75 1014.0
20260507165006 67 300 5.2 0.0 0.00 0.00 0.00 75 1014.0
20260507163406 68 300 5.2 0.0 0.00 0.00 0.00 75 1015.0
20260507161806 69 300 5.2 0.0 0.00 0.00 0.00 75 1015.0
20260507160205 64 290 5.2 0.0 0.00 0.00 0.00 82 1015.0
20260507154604 65 290 5.2 0.0 0.00 0.00 0.00 82 1015.0
20260507153004 64 290 5.2 0.0 0.00 0.00 0.00 75 1016.0
20260507151403 64 290 5.2 0.0 0.00 0.00 0.00 72 1016.0
20260507145802 64 290 5.2 0.0 0.00 0.00 0.00 70 1016.0
20260507144202 64 290 5.2 0.0 0.00 0.00 0.00 70 1016.0
20260507142601 64 290 5.2 0.0 0.00 0.00 0.00 70 1017.0
20260507141000 64 290 5.2 0.0 0.00 0.00 0.00 69 1017.0
20260507135358 65 0 1.7 0.0 0.00 0.00 0.00 68 1017.0
20260507133757 66 0 1.7 0.0 0.00 0.00 0.00 68 1017.0
20260507132157 57 306 1.7 0.9 0.00 0.00 0.00 73 1017.0
20260507130556 57 306 0.9 0.9 0.00 0.00 0.00 73 1017.0
20260507124955 58 306 1.7 0.9 0.00 0.00 0.00 73 1017.0
20260507123354 55 90 3.5 0.0 0.00 0.00 0.00 82 1017.0
20260507121754 55 90 3.5 0.0 0.00 0.00 0.00 82 1017.0
20260507120153 56 90 3.5 0.0 0.00 0.00 0.00 82 1017.0
20260507114553 57 90 3.5 0.0 0.00 0.00 0.00 82 1017.0
20260507112951 48 105 4.3 2.6 0.00 0.00 0.00 76 1017.0
20260507111351 48 105 4.3 2.6 0.00 0.00 0.00 75 1017.0
20260507105750 49 105 4.3 2.6 0.00 0.00 0.00 75 1017.0
20260507104149 48 105 4.3 2.6 0.00 0.00 0.00 75 1017.0
20260507102545 49 105 4.3 2.6 0.00 0.00 0.00 75 1017.0
20260507100944 48 105 4.3 2.6 0.00 0.00 0.00 75 1017.0
20260507095344 49 105 4.3 2.6 0.00 0.00 0.00 75 1017.0
20260507093738 48 110 4.3 2.6 0.00 0.00 0.00 75 1017.0
20260507092138 49 110 4.3 2.6 0.00 0.00 0.00 75 1017.0
20260507090537 48 110 4.3 2.6 0.00 0.00 0.00 75 1017.0
20260507084937 49 110 4.3 2.6 0.00 0.00 0.00 75 1017.0
20260507083336 48 108 4.3 2.6 0.00 0.00 0.00 75 1017.0
20260507081736 49 108 4.3 2.6 0.00 0.00 0.00 75 1017.0
20260507080135 48 107 4.3 2.6 0.00 0.00 0.00 76 1017.0
20260507074535 48 107 4.3 2.6 0.00 0.00 0.00 76 1017.0
20260507072933 49 107 4.3 2.6 0.00 0.00 0.00 76 1017.0
20260507071331 49 107 4.3 2.6 0.00 0.00 0.00 76 1017.0
20260507065728 49 107 4.3 2.6 0.00 0.00 0.00 76 1017.0
20260507064124 49 107 4.3 2.6 0.00 0.00 0.00 76 1017.0
20260507062523 49 107 4.3 2.6 0.00 0.00 0.00 76 1018.0
20260507060921 49 107 4.3 2.6 0.00 0.00 0.00 76 1018.0
20260507055320 49 107 4.3 2.6 0.00 0.00 0.00 76 1018.0
20260507053719 49 107 4.3 2.6 0.00 0.00 0.00 74 1018.0
20260507052119 50 107 4.3 2.6 0.00 0.00 0.00 74 1018.0
20260507050518 50 107 4.3 2.6 0.00 0.00 0.00 74 1018.0
20260507044917 50 107 4.3 2.6 0.00 0.00 0.00 74 1018.0
20260507043316 51 107 4.3 2.6 0.00 0.00 0.00 74 1018.0
20260507041715 49 111 6.1 3.5 0.00 0.00 0.00 74 1018.0
20260507040114 49 111 6.1 3.5 0.00 0.00 0.00 74 1018.0
20260507034514 50 111 6.1 3.5 0.00 0.00 0.00 74 1018.0
20260507032912 51 111 6.1 3.5 0.00 0.00 0.00 74 1018.0
20260507031311 52 111 6.1 3.5 0.00 0.00 0.00 74 1018.0
20260507025710 53 111 6.1 3.5 0.00 0.00 0.00 74 1018.0
20260507024109 54 111 6.1 3.5 0.00 0.00 0.00 74 1018.0
20260507022508 55 111 6.1 3.5 0.00 0.00 0.00 74 1017.0
20260507020907 50 280 7.0 0.0 0.00 0.00 0.00 70 1017.0
20260507015306 50 280 7.0 0.0 0.00 0.00 0.00 70 1017.0
20260507013704 50 280 7.0 0.0 0.00 0.00 0.00 70 1017.0
20260507012104 51 280 7.0 0.0 0.00 0.00 0.00 70 1016.0
20260507010503 51 280 7.0 0.0 0.00 0.00 0.00 70 1016.0
20260507004902 51 280 7.0 0.0 0.00 0.00 0.00 70 1016.0
20260507003301 52 280 7.0 0.0 0.00 0.00 0.00 70 1016.0
20260507001701 53 280 7.0 0.0 0.00 0.00 0.00 70 1015.0
20260507000100 54 280 7.0 0.0 0.00 0.00 0.00 70 1015.0
20260506234500 55 280 7.0 0.0 0.00 0.00 0.00 70 1015.0
20260506232859 56 280 7.0 0.0 0.00 0.00 0.00 70 1014.0
20260506231259 57 280 7.0 0.0 0.00 0.00 0.00 70 1014.0
20260506225658 58 280 7.0 0.0 0.00 0.00 0.00 70 1014.0
20260506224058 59 280 7.0 0.0 0.00 0.00 0.00 70 1013.0
20260506222457 60 280 7.0 0.0 0.00 0.00 0.00 69 1012.0
20260506220857 61 280 7.0 0.0 0.00 0.00 0.00 69 1012.0
20260506215256 62 280 7.0 0.0 0.00 0.00 0.00 69 1012.0
20260506213655 63 280 7.0 0.0 0.00 0.00 0.00 69 1012.0
20260506212054 63 280 7.0 0.0 0.00 0.00 0.00 69 1011.0
20260506210453 63 280 7.0 0.0 0.00 0.00 0.00 69 1011.0
20260506204852 64 280 7.0 0.0 0.00 0.00 0.00 69 1011.0
20260506203250 65 280 7.0 0.0 0.00 0.00 0.00 69 1011.0
20260506201650 66 280 7.0 0.0 0.00 0.00 0.00 69 1011.0
20260506200049 67 280 7.0 0.0 0.00 0.00 0.00 69 1011.0
20260506194449 68 280 7.0 0.0 0.00 0.00 0.00 69 1011.0
20260506192848 68 280 7.0 0.0 0.00 0.00 0.00 69 1012.0
20260506191246 69 280 7.0 0.0 0.00 0.00 0.00 69 1012.0
20260506185641 69 320 7.0 0.0 0.00 0.00 0.00 69 1012.0
20260506184040 69 320 7.0 0.0 0.00 0.00 0.00 69 1012.0
20260506182440 64 290 7.0 0.0 0.00 0.00 0.00 76 1013.0